This demonstration page uses our WeatherBlox Daily Observations layout. Learn more.

Left ArrowRight Arrow

Hourly Observations for August 16, 2020

Temp ( °F °C ) Dew Point ( °F °C ) Humidity (%) Winds ( mph kmh ) Pressure ( in mb ) Visibility ( mi km ) Precip ( " mm )
12:53 am 00:53 Mostly Cloudy 72 22.2 56 13.3 57 57 SSE 10 17 30.09 1019 10 16 0.00 0.00
1:50 am 01:50 Cloudy with Thunderstorms 70 21 57 14 64 64 SSE 7 11 30.07 1018 10 16 0.00 0.00
1:53 am 01:53 Cloudy with Thunderstorms 70 21.1 57 13.9 64 64 SSE 5 7 30.09 1019 10 16 0.00 0.00
2:25 am 02:25 Cloudy with Light Rain 67 19.4 60 15.6 79 79 ESE 8 13 30.09 1019 10 16 0.00 0.00
2:49 am 02:49 Cloudy with Nearby Thunderstorms 70 21 57 14 64 64 SSE 12 19 30.07 1018 10 16 0.00 0.00
2:53 am 02:53 Cloudy with Nearby Thunderstorms 70 21.1 58 14.4 66 66 SE 9 15 30.09 1019 10 16 0.00 0.00
3:09 am 03:09 Mostly Cloudy 69 20.6 58 14.4 68 68 S 7 11 30.06 1018 10 16 0.00 0.00
3:53 am 03:53 Cloudy 67 19.4 59 15 76 76 NE 8 13 30.11 1020 10 16 0.00 0.00
4:20 am 04:20 Mostly Cloudy with Nearby Thunderstorms 64 17.8 59 15 84 84 ENE 8 13 30.13 1020 9 14 0.04 1.02
4:45 am 04:45 Mostly Cloudy with Light Rain 63 17.2 59 15 87 87 E 5 7 30.14 1020 10 16 0.04 1.02
4:53 am 04:53 Cloudy with Light Rain 63 17.2 59 15 87 87 SE 8 13 30.12 1020 10 16 0.04 1.02
5:53 am 05:53 Clear 65 18.3 56 13.3 73 73 S 7 11 30.10 1019 10 16 0.00 0.00
6:53 am 06:53 Sunny 65 18.3 54 12.2 68 68 SSE 7 11 30.11 1020 10 16 0.00 0.00
7:53 am 07:53 Sunny 65 18.3 56 13.3 73 73 S 6 9 30.12 1020 10 16 0.00 0.00
8:53 am 08:53 Sunny 69 20.6 58 14.4 68 68 S 7 11 30.12 1020 10 16 0.00 0.00
9:53 am 09:53 Sunny 74 23.3 58 14.4 57 57 S 10 17 30.11 1020 10 16 0.00 0.00
10:53 am 10:53 Sunny 77 25 62 16.7 60 60 SSW 14 22 30.12 1020 10 16 0.00 0.00
11:53 am 11:53 Sunny 77 25 65 18.3 66 66 SSW 10 17 30.11 1020 10 16 0.00 0.00
12:35 pm 12:35 Partly Cloudy with Nearby Thunderstorms 81 27.2 66 18.9 61 61 SSW 12 19 30.04 1017 10 16 0.00 0.00
12:53 pm 12:53 Partly Cloudy with Thunderstorms 83 28.3 66 18.9 57 57 SSW 10 17 30.10 1019 10 16 0.00 0.00
1:16 pm 13:16 Mostly Cloudy with Heavy Rain 76 24.4 68 20 77 77 SSW 15 24 30.05 1017 1 1 0.24 6.10
1:25 pm 13:25 Mostly Cloudy with Light Rain 76 24.4 68 20 77 77 SSW 7 11 30.04 1017 1 2 0.27 6.86
1:27 pm 13:27 Mostly Cloudy with Light Rain 78 25.6 70 21.1 76 76 SSW 5 7 30.03 1017 3 5 0.27 6.86
1:35 pm 13:35 Partly Cloudy 80 26.7 69 20.6 69 69 S 8 13 30.02 1017 10 16 0.27 6.86
1:53 pm 13:53 Sunny 82 27.8 69 20.6 65 65 SSW 9 15 30.08 1019 10 16 0.27 6.86
2:53 pm 14:53 Sunny 85 29.4 69 20.6 59 59 S 8 13 30.07 1018 10 16 0.00 0.00
3:53 pm 15:53 Sunny 87 30.6 70 21.1 57 57 SSW 9 15 30.04 1017 10 16 0.00 0.00
4:53 pm 16:53 Sunny 89 31.7 71 21.7 55 55 SSW 7 11 30.01 1016 10 16 0.00 0.00
5:53 pm 17:53 Mostly Cloudy 87 30.6 72 22.2 61 61 SSW 7 11 30.00 1016 10 16 0.00 0.00
6:53 pm 18:53 Mostly Cloudy 84 28.9 72 22.2 67 67 SSW 6 9 30.02 1017 10 16 0.00 0.00
7:53 pm 19:53 Sunny with Nearby Thunderstorms 81 27.2 71 21.7 72 72 WSW 7 11 30.03 1017 10 16 0.00 0.00
8:16 pm 20:16 Mostly Cloudy 77 25 63 17.2 62 62 ENE 13 20 30.00 1016 10 16 0.00 0.00
8:46 pm 20:46 Mostly Cloudy with Thunderstorms 72 22.2 64 17.8 76 76 SE 13 20 30.07 1018 10 16 0.00 0.00
8:53 pm 20:53 Mostly Cloudy with Thunderstorms 72 22.2 64 17.8 76 76 SE 9 15 30.12 1020 10 16 0.00 0.00
9:04 pm 21:04 Mostly Cloudy with Nearby Thunderstorms 71 21.7 64 17.8 79 79 E 6 9 30.08 1019 10 16 0.00 0.00
9:15 pm 21:15 Mostly Cloudy 71 21.7 64 17.8 79 79 ESE 5 7 30.09 1019 10 16 0.00 0.00
9:53 pm 21:53 Clear 70 21.1 64 17.8 82 82 SSW 8 13 30.14 1021 10 16 0.00 0.00
10:53 pm 22:53 Clear 68 20 64 17.8 87 87 SW 9 15 30.14 1021 10 16 0.00 0.00
11:53 pm 23:53 Clear 67 19.4 64 17.8 91 91 WSW 6 9 30.15 1021 10 16 0.00 0.00

Powered by AerisWeather